Main page
METAR-TAF:

METAR-TAF

Airports :

Defence School of Transport

Leconfield, England

latitude: 53-52-37N, longitude: 0-26-15W, elevation: 7 m

Current weather observation

The report was made 54 minutes ago, at 17:50 UTC
Wind 16 kt from the East/Northeast
Temperature 7°C
Humidity 81%
Pressure 1022 hPa
Visibility 10 km or more

METAR: EGXV 191750Z AUTO 06016KT 9999 FEW028/// BKN050/// 07/04 Q1022 RERA

Time: 18:44 (18:44 UTC)


TAF: missing

Weather observations and forecasts of more than 4000 airports (METAR and TAF reports).

The available stations are represented by yellow and red dots on the map.

Hover mouse over dot to see the name of the station.

Then click to see weather observations and forecasts.

To change the map : click on the green buttons with a black cross to zoom in, on the green button with a dash to zoom out, or on the green arrows for adjacent maps.


METAR-TAF: